COSMOS 2251 DEB, 33948

Orbit data source: Space-Track

COSMOS 2251 DEB, 33948 is space debris in LEO originally from a launch on Wed, 16 Jun 1993 UTC launched from the Plesetsk Missile And Space Complex (PKMTR). The debris from Iridium 33, an American commercial communications satellite, has been tracked extensively since its accidental collision with the defunct Russian satellite Cosmos 2251 in 2009. This event, occurring at high speed in low Earth orbit (LEO), generated thousands of pieces of space debris, significantly increasing the risk of further collisions. The Iridium 33 debris cloud has impacted space traffic management and orbital debris mitigation strategies, making it a subject of ongoing study in space situational awareness.

Loading next visibility...
Identifier
33948, 1993-036FD
Orbit
LEO
Country
Flag of CISCIS
Related business
Manufacturer
Unknown
Mission
Spacecraft
Bus & Motor
Unknown
Mass
Unknown
Launch date (UTC)
1993-06-16 (32 years ago)
Launch vehicle
Unknown
Launch site
Plesetsk Missile And Space Complex (PKMTR)
Object type
Payload
Rocket body
Debris
Shape & HBR
Unknown shape, 0.1 m
Radar Cross Section
Small (<0.1 m²)

Expand to show TLE details & history
Last TLE update: 10 hours ago

TLE from 10 hours ago
0 COSMOS 2251 DEB
1 33948U 93036FD  25299.63248822  .00000719  00000-0  25794-3 0  9997
2 33948  74.0375  31.5594 0022310 123.3935 236.9356 14.35554932873470
Epoch: 2025-10-26T15:10Z
TLE epoch observation values (Epoch: 2025-10-26T15:10:46.982Z)
Latitude
-0.00004°
Longitude
128.61774°
Altitude
784.565 km
Speed
7.457 km/s
True Right ascension
02h 06m 14s
True Declination
0° 00' 00"
Sunlit
Object was in full shadow at epoch
Visualization orbit readout
Latitude
Unknown
Longitude
Unknown
Altitude
Unknown
Speed
Unknown
Apparent Right ascension
Unknown
Apparent Declination
Unknown
Sunlit
N/A
Visualization observer readout
Local Sidereal Time
20:12:22
Azimuth
Unknown
Elevation
Unknown
Doppler factor
Unknown
Orbital elements
Apogee altitude
786.797 km
Perigee altitude
754.898 km
Semi-major axis
7,148.984 km
Eccentricity
0.00223
Inclination
74.0375°
RAAN
31.5594°
Arg. of periapsis
123.3935°
True anomaly
236.72167°
Mean anomaly
236.9356°
Eccentric anomaly
236.8286°
Mean motion
3.59068 °/min
Orbital period
100.26 mins
BSTAR
0.00025794
Loading maneuver chart data...
Computing Atmospheric mass density...
Loading historical data...
Loading historical data...
Loading historical data...
Loading historical data...
Loading historical data...
Loading historical data...
Loading historical data...

Documentation

Showing up to 5 results
|